Weather History for Fort Myers, FL

Change the Weather History Date:

Friday, February 8, 2013

  Actual Average Record
Temperature  
Mean Temperature 73 °F 66 °F  
Max Temperature 84 °F 77 °F 88 °F (1949)
Min Temperature 62 °F 55 °F 37 °F (1922)
Degree Days  
Heating Degree Days 0 2  
Month to date heating degree days 19 22  
Since 1 July heating degree days 91 223  
Cooling Degree Days 8 3  
Month to date cooling degree days 20 24  
Year to date cooling degree days 196 107  
Growing Degree Days 22 (Base 50)    
Moisture  
Dew Point 62 °F    
Average Humidity 74    
Maximum Humidity 93    
Minimum Humidity 31    
Precipitation  
Precipitation 0.01 in 0.07 in 1.84 in (1941)
Month to date precipitation 0.01 0.55  
Year to date precipitation 0.63 2.49  
Sea Level Pressure  
Sea Level Pressure 30.00 in    
Wind  
Wind Speed 8 mph (WNW)    
Max Wind Speed 16 mph    
Max Gust Speed 23 mph    
Visibility 10 miles    
Events      
T = Trace of Precipitation, MM = Missing Value Source: NWS Daily Summary

Daily Weather History Graph

Daily Weather History Graph

Search for Another Location

Airport:

Trip Planner

Search our weather history database for the weather conditions in past years. The results will help you decide how hot, cold, wet, or windy it might be!

Date:

Astronomy

Feb. 08, 2013 Rise Set
Actual Time 7:08 AM EST 6:15 PM EST
Civil Twilight 6:44 AM EST 6:39 PM EST
Nautical Twilight 6:16 AM EST 7:06 PM EST
Astronomical Twilight 5:49 AM EST 7:33 PM EST
Moon 5:31 AM EST (2/8) 4:49 PM EST (2/8)
Length of Visible Light 11h 54m
Length of Day
11h 07m
Waning Crescent, 3% of the Moon is Illuminated
Feb 8
Waning Crescent
Feb 10
New
Feb 17
First Quarter
Feb 25
Full
Mar 4
Last Quarter

Hourly Weather History & Observations

Time (EST) Temp. Heat Index Dew Point Humidity Pressure Visibility Wind Dir Wind Speed Gust Speed Precip Events Conditions
12:53 AM 71.1 °F - 64.0 °F 78% 29.93 in 10.0 mi SW 15.0 mph 20.7 mph N/A   Partly Cloudy
1:53 AM 71.1 °F - 64.9 °F 81% 29.95 in 10.0 mi West 10.4 mph - N/A   Scattered Clouds
2:53 AM 70.0 °F - 66.0 °F 87% 29.92 in 10.0 mi Calm Calm - 0.01 in   Clear
3:53 AM 69.1 °F - 66.0 °F 90% 29.93 in 10.0 mi SW 4.6 mph - N/A   Clear
4:53 AM 69.1 °F - 66.0 °F 90% 29.94 in 10.0 mi SW 4.6 mph - N/A   Clear
5:53 AM 69.1 °F - 66.0 °F 90% 29.94 in 10.0 mi SSW 6.9 mph - N/A   Clear
7:50 AM 69.8 °F - 68.0 °F 94% 29.97 in 8.0 mi West 9.2 mph - N/A   Mostly Cloudy
7:53 AM 71.1 °F - 69.1 °F 93% 29.98 in 8.0 mi West 8.1 mph - N/A   Mostly Cloudy
8:53 AM 72.0 °F - 68.0 °F 87% 30.02 in 10.0 mi WNW 11.5 mph - N/A   Overcast
8:56 AM 71.6 °F - 68.0 °F 88% 30.01 in 10.0 mi WNW 9.2 mph - N/A   Mostly Cloudy
9:22 AM 73.4 °F - 66.2 °F 78% 30.02 in 10.0 mi WNW 9.2 mph - N/A   Scattered Clouds
9:43 AM 75.2 °F - 66.2 °F 73% 30.02 in 10.0 mi WNW 9.2 mph - N/A   Mostly Cloudy
9:53 AM 73.9 °F - 66.9 °F 79% 30.03 in 10.0 mi NW 8.1 mph - N/A   Mostly Cloudy
10:38 AM 75.2 °F - 66.2 °F 73% 30.03 in 10.0 mi NW 8.1 mph - N/A   Scattered Clouds
10:53 AM 75.9 °F - 66.0 °F 71% 30.04 in 10.0 mi WNW 8.1 mph - N/A   Partly Cloudy
11:53 AM 80.1 °F 81.5 °F 63.0 °F 56% 30.02 in 10.0 mi NNW 8.1 mph - N/A   Clear
12:53 PM 82.0 °F 82.7 °F 61.0 °F 49% 30.01 in 10.0 mi NW 8.1 mph - N/A   Clear
1:53 PM 82.9 °F 81.9 °F 54.0 °F 37% 29.99 in 10.0 mi WNW 10.4 mph - N/A   Clear
2:53 PM 82.9 °F - 51.1 °F 33% 29.98 in 10.0 mi WNW 10.4 mph - N/A   Clear
3:53 PM 82.0 °F - 48.9 °F 31% 29.98 in 10.0 mi NW 12.7 mph - N/A   Clear
4:53 PM 79.0 °F - 50.0 °F 36% 29.98 in 10.0 mi West 10.4 mph - N/A   Clear
5:53 PM 73.9 °F - 51.1 °F 45% 29.99 in 10.0 mi WNW 12.7 mph - N/A   Clear
6:53 PM 70.0 °F - 60.1 °F 71% 30.01 in 10.0 mi WNW 8.1 mph - N/A   Clear
7:53 PM 68.0 °F - 61.0 °F 78% 30.02 in 10.0 mi NW 5.8 mph - N/A   Clear
8:53 PM 66.9 °F - 61.0 °F 81% 30.05 in 10.0 mi NW 6.9 mph - N/A   Clear
9:53 PM 64.9 °F - 61.0 °F 87% 30.07 in 10.0 mi NW 6.9 mph - N/A   Clear
10:17 PM 64.4 °F - 62.6 °F 94% 30.07 in 10.0 mi NNW 9.2 mph - N/A   Partly Cloudy
10:53 PM 63.0 °F - 61.0 °F 93% 30.07 in 10.0 mi NNW 8.1 mph - N/A   Partly Cloudy
11:53 PM 62.1 °F - 59.0 °F 90% 30.08 in 10.0 mi North 8.1 mph - N/A   Clear